#timestamp,LO_Frequency,Hit 
1506150015.2,286046992.2,N
1506150035.0,286046992.0,N
1506150035.9,286046992.0,N
1506150055.8,286046997.5,N
1506150075.6,286046999.5,N
1506150095.4,286047000.3,N
1506150115.2,286047002.7,N
1506150135.1,286047001.7,N
1506150136.0,286047001.7,N
1506150155.8,286047005.3,N
1506150175.6,286047007.4,N
1506150195.5,286047003.3,N
1506150215.3,286047003.9,N
1506150235.1,286047002.7,N
1506150255.9,286047003.8,N
1506150275.7,286047005.9,N
1506150295.5,286047001.4,N
1506150315.4,286046996.7,N
1506150335.2,286046996.2,N
1506150355.0,286046994.9,N
1506150355.9,286046994.9,N
1506150375.8,286046993.4,N
1506150395.6,286046993.3,N
1506150415.4,286046996.0,N
1506150435.3,286046995.5,N
1506150455.1,286046997.3,N
1506150456.0,286046997.3,N
1506150475.8,286046996.4,N
1506150495.7,286046997.8,N
1506150515.5,286046998.6,N
1506150535.3,286046995.1,N
1506150555.1,286046993.5,N
1506150575.9,286046993.9,N
1506150595.7,286046992.0,N
1506150615.5,286046993.6,N
1506150635.4,286046993.8,N
1506150655.2,286046995.3,N
1506150675.0,286046998.0,N
1506150675.9,286046998.0,N
1506150695.8,286046993.9,N
1506150715.6,286046996.3,N
1506150735.4,286046997.7,N
1506150755.3,286046994.0,N
1506150775.1,286046993.2,N
1506150776.0,286046993.2,N
1506150795.8,286046992.7,N
1506150815.7,286046993.7,N
1506150835.5,286046995.7,N
1506150855.3,286046998.7,N
1506150875.1,286047001.2,N
1506150895.9,286046995.9,N
1506150915.7,286046992.3,P
1506150935.6,286046995.7,N
1506150955.4,286046995.9,N
1506150975.2,286046993.4,P
1506150995.1,286047002.0,N
1506150996.0,286047002.0,N
1506151015.8,286047005.5,N
1506151035.6,286047003.1,N
1506151055.5,286047001.7,N
1506151075.3,286047002.2,N
1506151095.1,286047000.1,N
1506151115.9,286047002.0,N
1506151135.7,286047003.1,N
1506151155.5,286047005.8,N
1506151175.3,286047002.2,N
1506151195.2,286047000.0,N
1506151215.0,286047001.1,N
1506151215.9,286047001.1,N
1506151235.7,286047000.8,N
1506151255.6,286047000.7,N
1506151275.4,286047000.8,N
1506151295.2,286046997.2,N
1506151315.1,286046997.8,N
1506151316.0,286046997.8,N
1506151335.8,286046996.2,N
1506151355.6,286046995.3,N
1506151375.5,286047002.7,N
1506151395.3,286046998.1,N
1506151415.1,286046999.9,N
1506151435.9,286047000.0,N
1506151455.7,286046999.1,N
1506151475.5,286046999.3,N
1506151495.3,286046997.0,N
1506151515.2,286046994.4,N
1506151535.0,286046992.6,N
1506151535.9,286046992.6,N
1506151555.7,286046998.0,N
1506151575.6,286046999.6,N
1506151595.4,286047001.9,N
1506151615.2,286047001.6,N
1506151635.1,286047001.8,N
1506151636.0,286047001.8,N
1506151655.8,286047003.2,N
1506151675.6,286047006.8,N
1506151695.5,286047008.6,N
1506151715.3,286047009.2,N
1506151735.1,286047008.3,N
1506151755.9,286047004.2,N
1506151775.7,286047003.9,N
1506151795.5,286047004.1,N
1506151815.4,286047004.1,N
1506151835.2,286047003.4,N
1506151855.0,286047003.0,N
1506151855.9,286047003.0,N
1506151875.8,286047004.3,N
1506151895.6,286047002.7,N
1506151915.4,286046997.1,N
1506151935.2,286047001.2,N
1506151955.1,286047002.2,N
1506151956.0,286047002.2,N
1506151975.8,286046999.3,N
1506151995.6,286046996.7,N
1506152015.5,286046995.8,N
1506152035.3,286046994.9,N
1506152055.1,286046995.6,N
1506152075.9,286046995.0,N
1506152095.7,286046995.9,N
1506152115.5,286046994.9,N
1506152135.4,286046996.2,N
1506152155.2,286046995.0,N
1506152175.0,286046995.0,N
1506152175.9,286046995.0,N
1506152195.8,286046996.3,N
1506152215.6,286046993.4,N
1506152235.4,286046995.9,N
1506152255.3,286046994.8,N
1506152275.1,286046994.7,N
1506152276.0,286046994.7,N
1506152295.8,286046993.8,N
1506152315.6,286046996.6,N
1506152335.5,286046998.6,N
1506152355.3,286046997.0,N
1506152375.1,286046994.9,N
1506152395.9,286046995.8,N
1506152415.7,286046993.4,N
1506152435.5,286046999.5,N
1506152455.4,286046998.2,N
1506152475.2,286047000.4,N
1506152495.0,286047002.4,N
1506152495.9,286047002.4,N
1506152515.8,286046999.7,N
1506152535.6,286046998.1,N
1506152555.4,286047002.0,N
1506152575.3,286047001.6,N
1506152595.1,286046997.7,N
1506152596.0,286046997.7,N
1506152615.8,286046995.0,N
1506152635.7,286046997.8,N
1506152655.5,286046995.0,N
1506152675.3,286046995.6,N
1506152695.1,286046996.6,N
1506152715.9,286046996.8,N
1506152735.7,286046998.4,N
1506152755.5,286046997.8,N
1506152775.4,286046995.6,N
1506152795.2,286046996.2,N
1506152815.0,286046998.4,N
1506152815.9,286046998.4,N
1506152835.8,286047002.4,N
1506152855.6,286047000.3,N
1506152875.4,286046998.3,N
1506152895.3,286046995.0,N
1506152915.1,286046995.4,N
1506152916.0,286046995.4,N
1506152935.8,286046997.5,N
1506152955.7,286046995.2,N
1506152975.5,286046995.3,N
1506152995.3,286047001.2,N
1506153015.2,286047000.0,N
1506153035.9,286047002.8,N
1506153055.7,286046998.6,N
1506153075.5,286046995.4,N
1506153095.4,286046992.5,P
1506153115.2,286046994.4,N
1506153135.1,286046996.3,N
1506153136.0,286046996.3,N
1506153155.8,286046997.1,N
1506153175.6,286047000.5,N
1506153195.4,286047002.0,N
1506153215.3,286047000.2,N
1506153235.1,286046998.7,N
1506153255.8,286046997.2,N
1506153275.7,286046993.6,N
1506153295.5,286046993.9,N
1506153315.3,286046997.1,N
1506153335.2,286046998.5,N
1506153355.9,286046998.5,N
1506153375.7,286046998.7,N
1506153395.6,286046999.2,N
1506153415.4,286047000.0,N
1506153435.2,286046997.6,N
1506153455.0,286046993.9,N
1506153455.9,286046993.9,N
1506153475.8,286046996.0,N
1506153495.6,286046995.3,N
1506153515.4,286046994.0,N
1506153535.3,286046994.8,N
1506153555.1,286046993.4,N
1506153575.8,286046997.6,N
1506153595.7,286046994.5,N
